Location: Fort Worth, Tx
(32.7431°N, 97.3695°W)
Time: 09:06:21
(UTC-04:00)

A-11 Canister half - Pass Details

Date: 18 August 2024
Orbit: 1524 x 1684 km, 47.3° (Epoch: 13 September)

Event Time Altitude Azimuth Distance (km) Brightness Sun altitude
Rises 01:00:20 0° 263° (W) 4,882 11.9 -39.2°
Reaches altitude 10° 01:03:42 10° 270° (W) 3,912 11.4 -39.6°
Maximum altitude 01:13:12 44° 340° (NNW) 2,199 10.0 -40.5°
Drops below altitude 10° 01:22:48 10° 51° (NE) 3,945 11.2 -41.3°
Sets 01:26:13 0° 58° (ENE) 4,926 11.8 -41.6°
